Meridian, MS

11:52 AM CDT on October 15, 2019 (GMT -0500)
Key

Weather History for KMEI - August, 2019

Change the Weather History Date:

Friday, August 9, 2019

  Actual Average Record
Temperature  
Mean Temperature 85 °F 81 °F  
Max Temperature 94 °F 92 °F 103 °F (1935)
Min Temperature 75 °F 70 °F 56 °F (1976)
Degree Days  
Heating Degree Days 0 0  
Month to date heating degree days 0 0  
Since 1 June heating degree days 0 0  
Since 1 July heating degree days 0 0  
Cooling Degree Days 20 16  
Month to date cooling degree days 171 144  
Year to date cooling degree days 1686 1291  
Since 1 June cooling degree days 1190 1008  
Growing Degree Days 33 (Base 50)    
Moisture  
Dew Point 74 °F    
Average Humidity 77    
Maximum Humidity 94    
Minimum Humidity 60    
Precipitation  
Precipitation T in 0.14 in 3.97 in (1897)
Month to date precipitation 2.10 1.32  
Year to date precipitation 40.68 36.29  
Sea Level Pressure  
Sea Level Pressure 29.96 in    
Wind  
Wind Speed 3 mph (NNE)    
Max Wind Speed 16 mph    
Max Gust Speed 19 mph    
Visibility 10 miles    
Events Thunderstorm    
T = Trace of Precipitation, MM = Missing Value Source: NWS Daily Summary

Daily Weather History Graph

Daily Weather History Graph

Search for Another Location

Airport or City:

Astronomy

Aug. 09, 2019 Rise Set
Actual Time 6:14 AM CDT 7:45 PM CDT
Civil Twilight 5:48 AM CDT 8:11 PM CDT
Nautical Twilight 5:17 AM CDT 8:43 PM CDT
Astronomical Twilight 4:44 AM CDT 9:16 PM CDT
Moon 3:22 PM CDT (8/9) 1:13 AM CDT (8/9)
Length of Visible Light 14h 23m
Length of Day
13h 30m
Waxing Gibbous, 70% of the Moon is Illuminated
Aug 9
Waxing Gibbous
Aug 15
Full
Aug 23
Last Quarter
Aug 30
New
Sep 5
First Quarter

Hourly Weather History & Observations

Time (CDT) Temp. Heat Index Dew Point Humidity Pressure Visibility Wind Dir Wind Speed Gust Speed Precip Events Conditions
12:58 AM 78.1 °F - 73.9 °F 87% 29.94 in 10.0 mi Calm Calm - N/A   Clear
1:58 AM 77.0 °F - 73.9 °F 90% 29.94 in 10.0 mi Calm Calm - N/A   Clear
4:58 AM 75.9 °F - 73.0 °F 91% 29.93 in 10.0 mi Calm Calm - N/A   Clear
5:58 AM 73.4 °F - 71.6 °F 94% 29.96 in 10.0 mi Calm Calm - N/A   Clear
6:58 AM 75.0 °F - 73.0 °F 94% 29.97 in 10.0 mi Calm Calm - N/A   Clear
7:58 AM 75.9 °F - 73.0 °F 91% 29.99 in 10.0 mi South 4.6 mph - N/A   Clear
8:58 AM 82.0 °F 88.6 °F 75.0 °F 79% 30.00 in 10.0 mi Calm Calm - N/A   Clear
9:58 AM 88.0 °F 100.2 °F 77.0 °F 70% 29.99 in 10.0 mi Variable 4.6 mph - N/A   Clear
10:58 AM 91.9 °F 105.9 °F 77.0 °F 62% 29.99 in 10.0 mi Variable 5.8 mph - N/A   Partly Cloudy
11:58 AM 90.0 °F 101.3 °F 75.9 °F 63% 29.98 in 10.0 mi Calm Calm - N/A   Partly Cloudy
12:58 PM 91.9 °F 103.2 °F 75.0 °F 58% 29.96 in 10.0 mi Calm Calm - N/A   Partly Cloudy
1:58 PM 89.1 °F 100.2 °F 75.9 °F 65% 29.94 in 10.0 mi ENE 8.1 mph - 0.00 in   Overcast
2:26 PM 89.1 °F 101.4 °F 77.0 °F 67% 29.95 in 10.0 mi North 9.2 mph - N/A Thunderstorm Mostly Cloudy
2:34 PM 88.0 °F 98.5 °F 75.9 °F 67% 29.96 in 10.0 mi North 16.1 mph - N/A Thunderstorm Thunderstorm
2:49 PM 84.0 °F 89.6 °F 72.0 °F 67% 29.96 in 10.0 mi North 10.4 mph - N/A Thunderstorm Mostly Cloudy
2:58 PM 84.0 °F 89.6 °F 72.0 °F 67% 29.95 in 10.0 mi North 5.8 mph - N/A Thunderstorm Scattered Clouds
3:09 PM 84.0 °F 89.6 °F 72.0 °F 67% 29.95 in 10.0 mi North 4.6 mph - N/A   Partly Cloudy
3:58 PM 84.0 °F 91.2 °F 73.9 °F 72% 29.95 in 10.0 mi NE 5.8 mph - N/A   Clear
4:58 PM 82.9 °F 90.2 °F 75.0 °F 77% 29.95 in 10.0 mi NNE 11.5 mph - N/A   Clear
5:58 PM 82.0 °F 87.9 °F 73.9 °F 76% 29.95 in 10.0 mi NE 6.9 mph - N/A   Clear
6:58 PM 81.0 °F 85.8 °F 73.0 °F 77% 29.95 in 10.0 mi North 4.6 mph - N/A   Clear
7:58 PM 79.0 °F - 73.9 °F 84% 29.97 in 10.0 mi Calm Calm - N/A   Clear
8:58 PM 79.0 °F - 73.9 °F 84% 29.97 in 10.0 mi South 3.5 mph - N/A   Clear
9:58 PM 78.1 °F - 73.9 °F 87% 29.96 in 10.0 mi South 5.8 mph - N/A   Clear
10:58 PM 77.0 °F - 73.0 °F 88% 29.95 in 10.0 mi South 4.6 mph - N/A   Clear
11:58 PM 75.9 °F - 73.0 °F 91% 29.96 in 10.0 mi WNW 3.5 mph - N/A   Clear